Showing default

COSMOS 1302, 12791

Orbit data source: Space-Track

COSMOS 1302, 12791 is a payload satellite owned by GUKOS (CIS) in LEO that was launched on Fri, 28 Aug 1981 UTC via a KOSMOS 11K65M launch vehicle from the Plesetsk Missile And Space Complex (PKMTR). Payload-class satellites include a variety of spacecraft equipped with specific instruments for various scientific and technological missions. These include communications satellites like Starlink; space stations such as the ISS; scientific satellites like the Hubble; Earth observation satellites from companies like Planet Labs, Umbra, and HawkEye 360; GPS; miniature CubeSats for education and research; and military/defense satellites.

Loading next visibility...
Identifier
12791, 1981-084A
Orbit
LEO
Country
Flag of CISCIS
Related business
Manufacturer
NPO PM
Mission
Spacecraft
Bus & Motor
STRELA-2M, Unknown motor
Mass
800 kg wet, 800 kg dry
Launch date (UTC)
1981-08-28 (45 years ago)
Launch vehicle
KOSMOS 11K65M
Launch site
Plesetsk Missile And Space Complex (PKMTR)
Object type
Payload
Rocket body
Debris
Shape & HBR
Unknown
Radar Cross Section
Large (>1 m²)

Expand to show TLE details & history
Last TLE update: 8 hours ago

TLE from 8 hours ago
0 COSMOS 1302
1 12791U 81084A   26178.48538323  .00000107  00000-0  46616-4 0  9996
2 12791  74.0257 212.2675 0018418   1.0642 359.0546 14.35058881344205
Epoch: 2026-06-27T11:38Z
TLE epoch observation values (Epoch: 2026-06-27T11:38:57.111Z)
Latitude
Longitude
121.93068°
Altitude
764.305 km
Speed
7.479 km/s
True Right ascension
14h 09m 04s
True Declination
0° 00' 00"
Sunlit
Object was in daylight at epoch
Visualization orbit readout
Latitude
Unknown
Longitude
Unknown
Altitude
Unknown
Speed
Unknown
Apparent Right ascension
Unknown
Apparent Declination
Unknown
Sunlit
N/A
Visualization observer readout
Local Sidereal Time
07:18:13
Azimuth
Unknown
Elevation
Unknown
Doppler factor
Unknown
Orbital elements
Apogee altitude
785.667 km
Perigee altitude
759.327 km
Semi-major axis
7,150.634 km
Eccentricity
0.00184
Inclination
74.0257°
RAAN
212.2675°
Arg. of periapsis
1.0642°
True anomaly
359.05111°
Mean anomaly
359.0546°
Eccentric anomaly
359.05286°
Mean motion
3.58944 °/min
Orbital period
100.29 mins
BSTAR
0.000046616
Loading maneuver chart data...
Computing Atmospheric mass density...
Loading historical data...
Loading historical data...
Loading historical data...
Loading historical data...
Loading historical data...
Loading historical data...
Loading historical data...
Other satellites on launch #84 in the year 1981 (1981-08-28 UTC)

Documentation

Showing up to 5 results
|